User: anonymous   Login
Location: McDonald Observatory
(30.6717°N, 104.0221°W)
Time: 06:09:01
(UTC-05:00)
Language:

Cosmos 1484 Rocket - Orbit

View from above orbital plane
View from above orbital plane
View from above satellite
View from above satellite

Ground track
Ground track

The orbit data is extracted from the following two-line orbital elements,

1 14208U 83075B   16126.20468843  .00001203  00000-0  76626-4 0  9996
2 14208  97.3574 147.2899 0041699  97.9380 262.6585 15.09878880785937
Epoch (UTC): 05 May 2016 04:54:45
Eccentricity: 0.0041699
inclination: 97.3574°
perigee height: 508 km
apogee height: 565 km
right ascension of ascending node: 147.2899°
argument of perigee: 97.9380°
revolutions per day: 15.09878880
mean anomaly at epoch: 262.6585°
orbit number at epoch: 78593

The dashed part of the orbit path shows where the satellite is in the earth's shadow,  

DLR